ABY780 OMSJ-OMAA

Flight info

Callsign ABY780
Flight time 0h 25m
Altitude 16000
Route EMERU1R EMERU EMERU2D
Aircraft A320/M-VGDW/C

Departure

Time 2026-04-23 21:05
Airport Sharjah International Airport (OMSJ)

Arrival

Time 2026-04-23 21:30
Airport Zayed International Airport (OMAA)
Time Latitude Longitude Altitude Speed Heading
2026-04-23 20:51 25.32285 55.52080 96 ft 0 kts 206°
2026-04-23 20:59 25.32291 55.52084 94 ft 2 kts 206°
2026-04-23 20:59 25.32301 55.52089 95 ft 2 kts 206°
2026-04-23 21:00 25.32317 55.52097 94 ft 2 kts 206°
2026-04-23 21:00 25.32332 55.52106 95 ft 2 kts 206°
2026-04-23 21:00 25.32347 55.52114 93 ft 2 kts 206°
2026-04-23 21:00 25.32363 55.52123 93 ft 2 kts 183°
2026-04-23 21:01 25.32376 55.52120 94 ft 0 kts 132°
2026-04-23 21:01 25.32382 55.52112 94 ft 3 kts 132°
2026-04-23 21:01 25.32384 55.52110 94 ft 0 kts 132°
2026-04-23 21:02 25.32383 55.52111 94 ft 2 kts 130°
2026-04-23 21:02 25.32386 55.52182 95 ft 16 kts 96°
2026-04-23 21:02 25.32322 55.52309 95 ft 20 kts 122°
2026-04-23 21:03 25.32251 55.52434 96 ft 15 kts 120°
2026-04-23 21:03 25.32297 55.52525 97 ft 17 kts 30°
2026-04-23 21:03 25.32403 55.52600 97 ft 19 kts 32°
2026-04-23 21:03 25.32506 55.52668 99 ft 12 kts 24°
2026-04-23 21:04 25.32584 55.52653 98 ft 13 kts 319°
2026-04-23 21:04 25.32698 55.52465 95 ft 61 kts 302°
2026-04-23 21:04 25.33044 55.51862 91 ft 124 kts 302°
2026-04-23 21:04 25.33604 55.50892 92 ft 172 kts 303°
2026-04-23 21:05 25.34243 55.49782 763 ft 170 kts 303°
2026-04-23 21:05 25.34890 55.48657 1275 ft 181 kts 304°
2026-04-23 21:05 25.35607 55.47412 1561 ft 203 kts 304°
2026-04-23 21:05 25.36409 55.46021 1793 ft 226 kts 304°
2026-04-23 21:06 25.37069 55.44337 2070 ft 253 kts 278°
2026-04-23 21:06 25.36827 55.42356 2504 ft 271 kts 243°
2026-04-23 21:06 25.35620 55.40752 3273 ft 274 kts 220°
2026-04-23 21:06 25.34207 55.39319 4114 ft 276 kts 225°
2026-04-23 21:07 25.32856 55.37803 4942 ft 278 kts 227°
2026-04-23 21:07 25.31529 55.36249 5806 ft 278 kts 228°
2026-04-23 21:07 25.30204 55.34690 6666 ft 278 kts 227°
2026-04-23 21:07 25.28874 55.33141 7494 ft 278 kts 227°
2026-04-23 21:08 25.27533 55.31595 8336 ft 279 kts 227°
2026-04-23 21:08 25.26184 55.30053 9141 ft 280 kts 226°
2026-04-23 21:08 25.24818 55.28501 9745 ft 283 kts 226°
2026-04-23 21:08 25.23483 55.26914 9926 ft 282 kts 228°
2026-04-23 21:09 25.22186 55.25293 9984 ft 281 kts 229°
2026-04-23 21:09 25.20907 55.23661 9994 ft 281 kts 229°
2026-04-23 21:09 25.19545 55.22124 10000 ft 281 kts 219°
2026-04-23 21:09 25.17865 55.21018 10003 ft 282 kts 204°
2026-04-23 21:10 25.16056 55.20232 10004 ft 283 kts 203°
2026-04-23 21:10 25.14202 55.19434 10009 ft 283 kts 202°
2026-04-23 21:10 25.12390 55.18656 10013 ft 283 kts 202°
2026-04-23 21:10 25.10556 55.17870 10017 ft 283 kts 203°
2026-04-23 21:11 25.08721 55.17082 10022 ft 283 kts 202°
2026-04-23 21:11 25.06888 55.16292 10025 ft 283 kts 203°
2026-04-23 21:11 25.05053 55.15500 10027 ft 283 kts 203°
2026-04-23 21:11 25.03220 55.14710 10006 ft 283 kts 203°
2026-04-23 21:12 25.01387 55.13919 10009 ft 283 kts 203°
2026-04-23 21:12 24.99553 55.13130 10010 ft 283 kts 203°
2026-04-23 21:12 24.97721 55.12342 10008 ft 283 kts 203°
2026-04-23 21:12 24.95891 55.11556 10008 ft 283 kts 203°
2026-04-23 21:13 24.94053 55.10765 10006 ft 283 kts 203°
2026-04-23 21:13 24.92217 55.09976 10006 ft 283 kts 202°
2026-04-23 21:13 24.90379 55.09189 10004 ft 283 kts 202°
2026-04-23 21:13 24.88540 55.08403 10004 ft 284 kts 202°
2026-04-23 21:14 24.86701 55.07613 10000 ft 284 kts 203°
2026-04-23 21:14 24.84860 55.06823 10001 ft 284 kts 202°
2026-04-23 21:14 24.83015 55.06032 9786 ft 284 kts 202°
2026-04-23 21:14 24.81180 55.05241 9536 ft 282 kts 204°
2026-04-23 21:15 24.79464 55.04217 9285 ft 280 kts 212°
2026-04-23 21:15 24.77792 55.03118 9063 ft 280 kts 212°
2026-04-23 21:15 24.76122 55.02023 8871 ft 279 kts 211°
2026-04-23 21:15 24.74455 55.00932 8676 ft 279 kts 211°
2026-04-23 21:16 24.72790 54.99844 8482 ft 277 kts 211°
2026-04-23 21:16 24.71131 54.98761 8288 ft 277 kts 211°
2026-04-23 21:16 24.69478 54.97680 8114 ft 276 kts 211°
2026-04-23 21:16 24.67832 54.96601 8020 ft 275 kts 212°
2026-04-23 21:17 24.66181 54.95518 7882 ft 276 kts 211°
2026-04-23 21:17 24.64532 54.94438 7714 ft 275 kts 211°
2026-04-23 21:17 24.62887 54.93363 7548 ft 275 kts 211°
2026-04-23 21:17 24.61246 54.92292 7382 ft 274 kts 211°
2026-04-23 21:18 24.59607 54.91224 7211 ft 274 kts 211°
2026-04-23 21:18 24.57989 54.90168 7048 ft 274 kts 211°
2026-04-23 21:18 24.56358 54.89103 6884 ft 273 kts 211°
2026-04-23 21:18 24.54726 54.88038 6722 ft 273 kts 211°
2026-04-23 21:19 24.53093 54.86973 6561 ft 272 kts 211°
2026-04-23 21:19 24.51465 54.85913 6399 ft 272 kts 211°
2026-04-23 21:19 24.49836 54.84852 6234 ft 272 kts 211°
2026-04-23 21:19 24.48227 54.83803 6091 ft 263 kts 211°
2026-04-23 21:20 24.46659 54.82873 5996 ft 251 kts 199°
2026-04-23 21:20 24.44942 54.82674 6007 ft 251 kts 172°
2026-04-23 21:20 24.43324 54.83396 5970 ft 256 kts 144°
2026-04-23 21:20 24.42133 54.84816 5782 ft 250 kts 130°
2026-04-23 21:21 24.41082 54.86301 5598 ft 242 kts 130°
2026-04-23 21:21 24.40066 54.87744 5395 ft 236 kts 129°
2026-04-23 21:21 24.39078 54.89149 5214 ft 230 kts 129°
2026-04-23 21:21 24.38107 54.90524 5023 ft 226 kts 130°
2026-04-23 21:22 24.37148 54.91868 4834 ft 222 kts 130°
2026-04-23 21:22 24.36207 54.93183 4646 ft 215 kts 130°
2026-04-23 21:22 24.35306 54.94445 4459 ft 204 kts 129°
2026-04-23 21:22 24.34453 54.95633 4293 ft 196 kts 131°
2026-04-23 21:23 24.33371 54.96473 4091 ft 193 kts 165°
2026-04-23 21:23 24.32057 54.96381 3894 ft 194 kts 204°
2026-04-23 21:23 24.31059 54.95400 3711 ft 197 kts 235°
2026-04-23 21:23 24.30374 54.94095 3474 ft 196 kts 241°
2026-04-23 21:24 24.29731 54.92764 3061 ft 197 kts 243°
2026-04-23 21:24 24.29125 54.91426 2995 ft 200 kts 251°
2026-04-23 21:24 24.28910 54.89921 3007 ft 202 kts 274°
2026-04-23 21:24 24.29212 54.88410 3008 ft 201 kts 296°
2026-04-23 21:25 24.29945 54.87143 3016 ft 199 kts 311°
2026-04-23 21:25 24.30811 54.85955 3012 ft 200 kts 310°
2026-04-23 21:25 24.31666 54.84758 3008 ft 199 kts 310°
2026-04-23 21:25 24.32516 54.83563 3008 ft 199 kts 309°
2026-04-23 21:26 24.33361 54.82370 3006 ft 198 kts 309°
2026-04-23 21:26 24.34200 54.81184 3009 ft 195 kts 309°
2026-04-23 21:26 24.35031 54.80007 2901 ft 196 kts 309°
2026-04-23 21:26 24.35860 54.78830 2647 ft 195 kts 310°
2026-04-23 21:27 24.36697 54.77647 2382 ft 196 kts 310°
2026-04-23 21:27 24.37534 54.76463 2118 ft 197 kts 310°
2026-04-23 21:27 24.38362 54.75291 1860 ft 188 kts 313°
2026-04-23 21:27 24.39121 54.74213 1640 ft 170 kts 314°
2026-04-23 21:28 24.39817 54.73225 1422 ft 158 kts 314°
2026-04-23 21:28 24.40480 54.72291 1228 ft 153 kts 314°
2026-04-23 21:28 24.41126 54.71386 1022 ft 149 kts 313°
2026-04-23 21:28 24.41710 54.70570 832 ft 147 kts 311°
2026-04-23 21:29 24.42341 54.69688 671 ft 145 kts 311°
2026-04-23 21:29 24.42948 54.68830 505 ft 141 kts 311°
2026-04-23 21:29 24.43532 54.67994 326 ft 139 kts 311°
2026-04-23 21:29 24.44127 54.67169 117 ft 137 kts 310°
2026-04-23 21:30 24.44679 54.66401 63 ft 113 kts 308°
2026-04-23 21:30 24.45058 54.65867 58 ft 64 kts 308°
2026-04-23 21:30 24.45295 54.65534 56 ft 44 kts 307°
2026-04-23 21:30 24.45404 54.65280 57 ft 30 kts 282°
2026-04-23 21:31 24.45434 54.65084 54 ft 20 kts 279°
2026-04-23 21:31 24.45480 54.64968 54 ft 17 kts 305°
2026-04-23 21:31 24.45557 54.64863 54 ft 18 kts 306°
2026-04-23 21:31 24.45632 54.64756 53 ft 12 kts 309°
2026-04-23 21:32 24.45686 54.64681 55 ft 13 kts 308°
2026-04-23 21:32 24.45703 54.64612 57 ft 0 kts 253°
2026-04-23 21:32 24.45702 54.64611 57 ft 2 kts 249°
2026-04-23 21:32 24.45675 54.64582 57 ft 5 kts 217°
2026-04-23 21:33 24.45624 54.64537 51 ft 13 kts 221°
2026-04-23 21:33 24.45552 54.64476 57 ft 12 kts 217°
2026-04-23 21:33 24.45488 54.64422 55 ft 11 kts 217°
2026-04-23 21:33 24.45430 54.64378 58 ft 9 kts 203°
2026-04-23 21:34 24.45374 54.64395 52 ft 8 kts 142°
2026-04-23 21:34 24.45339 54.64435 54 ft 7 kts 129°
2026-04-23 21:34 24.45310 54.64489 54 ft 10 kts 112°
2026-04-23 21:34 24.45293 54.64556 58 ft 4 kts 115°
2026-04-23 21:35 24.45269 54.64569 56 ft 4 kts 172°